Time,TemperatureF,DewpointF,PressureIn,WindDirection,WindDirectionDegrees,WindSpeedMPH,WindSpeedGustMPH,Humidity,HourlyPrecipIn,Conditions,Clouds,dailyrainin,SoftwareType,DateUTC
2013-09-01 14:46:00,90.8,72.9,29.75,NNW,345,4.0,5.0,56,0.00,,,0.00,Wunderground v.1.15,2013-09-01 19:46:00,
2013-09-01 14:48:00,90.4,73.1,29.75,NNE,20,4.0,5.0,57,0.00,,,0.00,Wunderground v.1.15,2013-09-01 19:48:00,
2013-09-01 14:50:00,90.3,73.0,29.74,North,360,4.0,5.0,57,0.00,,,0.00,Wunderground v.1.15,2013-09-01 19:50:00,
2013-09-01 14:52:00,90.2,72.9,29.74,NE,42,4.0,5.0,57,0.00,,,0.00,Wunderground v.1.15,2013-09-01 19:52:00,
2013-09-01 14:54:00,90.2,72.9,29.74,NE,42,4.0,5.0,57,0.00,,,0.00,Wunderground v.1.15,2013-09-01 19:54:00,
2013-09-01 15:00:00,90.8,73.5,29.74,NNE,26,3.0,11.0,57,0.00,,,0.00,Wunderground v.1.15,2013-09-01 20:00:00,
2013-09-01 15:06:00,90.8,73.5,29.74,NE,56,3.0,11.0,57,0.00,,,0.00,Wunderground v.1.15,2013-09-01 20:06:00,
2013-09-01 15:12:00,91.3,73.4,29.74,NNE,12,3.0,3.0,56,0.00,,,0.00,Wunderground v.1.15,2013-09-01 20:12:00,
2013-09-01 15:18:00,91.4,73.5,29.74,NNW,345,2.0,5.0,56,0.00,,,0.00,Wunderground v.1.15,2013-09-01 20:18:00,
2013-09-01 15:24:00,91.0,73.1,29.74,NNW,336,2.0,2.0,56,0.00,,,0.00,Wunderground v.1.15,2013-09-01 20:24:00,
2013-09-01 15:30:00,90.5,72.7,29.74,NNE,26,2.0,2.0,56,0.00,,,0.00,Wunderground v.1.15,2013-09-01 20:30:00,
2013-09-01 15:36:00,90.3,73.0,29.73,NNE,22,2.0,4.0,57,0.00,,,0.00,Wunderground v.1.15,2013-09-01 20:36:00,
2013-09-01 15:42:00,90.4,73.1,29.74,NNE,24,1.0,1.0,57,0.00,,,0.00,Wunderground v.1.15,2013-09-01 20:42:00,
2013-09-01 15:48:00,90.5,73.2,29.74,NNE,24,1.0,1.0,57,0.00,,,0.00,Wunderground v.1.15,2013-09-01 20:48:00,
2013-09-01 15:54:00,90.6,72.8,29.73,NNE,24,1.0,3.0,56,0.00,,,0.00,Wunderground v.1.15,2013-09-01 20:54:00,
2013-09-01 16:00:00,90.1,73.3,29.73,NNE,24,1.0,1.0,58,0.00,,,0.00,Wunderground v.1.15,2013-09-01 21:00:00,
2013-09-01 16:06:00,90.0,72.7,29.73,NNE,24,0.0,1.0,57,0.00,,,0.00,Wunderground v.1.15,2013-09-01 21:06:00,
2013-09-01 16:12:00,89.9,73.1,29.72,NNE,24,0.0,0.0,58,0.00,,,0.00,Wunderground v.1.15,2013-09-01 21:12:00,
2013-09-01 16:18:00,90.0,73.7,29.73,NNE,24,0.0,1.0,59,0.00,,,0.00,Wunderground v.1.15,2013-09-01 21:18:00,
2013-09-01 16:24:00,90.2,73.4,29.72,NNE,24,0.0,0.0,58,0.00,,,0.00,Wunderground v.1.15,2013-09-01 21:24:00,
2013-09-01 16:30:00,90.8,73.5,29.72,NNE,24,0.0,0.0,57,0.00,,,0.00,Wunderground v.1.15,2013-09-01 21:30:00,
2013-09-01 16:36:00,91.1,73.7,29.72,NNE,24,0.0,0.0,57,0.00,,,0.00,Wunderground v.1.15,2013-09-01 21:36:00,
2013-09-01 16:42:00,90.8,73.5,29.71,NNE,24,0.0,0.0,57,0.00,,,0.00,Wunderground v.1.15,2013-09-01 21:42:00,
2013-09-01 16:48:00,90.8,73.5,29.70,NNE,24,1.0,1.0,57,0.00,,,0.00,Wunderground v.1.15,2013-09-01 21:48:00,
2013-09-01 16:54:00,91.1,73.2,29.71,NNE,24,1.0,2.0,56,0.00,,,0.00,Wunderground v.1.15,2013-09-01 21:54:00,
2013-09-01 17:00:00,90.9,73.6,29.71,NNE,24,1.0,1.0,57,0.00,,,0.00,Wunderground v.1.15,2013-09-01 22:00:00,
2013-09-01 17:06:00,90.4,73.1,29.71,NNE,24,1.0,1.0,57,0.00,,,0.00,Wunderground v.1.15,2013-09-01 22:06:00,
2013-09-01 17:12:00,90.2,73.4,29.72,NNE,15,1.0,1.0,58,0.00,,,0.00,Wunderground v.1.15,2013-09-01 22:12:00,
2013-09-01 17:18:00,89.6,73.4,29.72,NNE,15,1.0,1.0,59,0.00,,,0.00,Wunderground v.1.15,2013-09-01 22:18:00,
2013-09-01 17:24:00,89.6,73.9,29.71,NNE,13,1.0,3.0,60,0.00,,,0.00,Wunderground v.1.15,2013-09-01 22:24:00,
2013-09-01 17:30:00,89.4,73.7,29.71,NNE,13,1.0,1.0,60,0.00,,,0.00,Wunderground v.1.15,2013-09-01 22:30:00,
2013-09-01 17:36:00,89.3,73.6,29.71,NNE,13,1.0,2.0,60,0.00,,,0.00,Wunderground v.1.15,2013-09-01 22:36:00,
2013-09-01 17:42:00,89.6,73.9,29.72,NNE,14,1.0,1.0,60,0.00,,,0.00,Wunderground v.1.15,2013-09-01 22:42:00,
2013-09-01 17:48:00,89.4,73.7,29.72,NNE,12,2.0,5.0,60,0.00,,,0.00,Wunderground v.1.15,2013-09-01 22:48:00,
2013-09-01 17:54:00,89.0,73.8,29.72,NNE,12,2.0,3.0,61,0.00,,,0.00,Wunderground v.1.15,2013-09-01 22:54:00,
2013-09-01 18:00:00,88.7,73.5,29.72,North,11,1.0,2.0,61,0.00,,,0.00,Wunderground v.1.15,2013-09-01 23:00:00,
2013-09-01 18:06:00,88.4,74.2,29.72,North,360,1.0,2.0,63,0.00,,,0.00,Wunderground v.1.15,2013-09-01 23:06:00,
2013-09-01 18:12:00,87.9,74.2,29.72,WNW,300,1.0,1.0,64,0.00,,,0.00,Wunderground v.1.15,2013-09-01 23:12:00,
2013-09-01 18:18:00,87.7,74.0,29.72,WNW,300,0.0,1.0,64,0.00,,,0.00,Wunderground v.1.15,2013-09-01 23:18:00,
2013-09-01 18:24:00,87.6,74.4,29.72,NW,321,0.0,2.0,65,0.00,,,0.00,Wunderground v.1.15,2013-09-01 23:24:00,
2013-09-01 18:30:00,87.4,74.2,29.72,NW,323,1.0,3.0,65,0.00,,,0.00,Wunderground v.1.15,2013-09-01 23:30:00,
2013-09-01 18:36:00,87.0,74.3,29.72,North,5,2.0,3.0,66,0.00,,,0.00,Wunderground v.1.15,2013-09-01 23:36:00,
2013-09-01 18:42:00,86.6,73.9,29.72,North,360,2.0,2.0,66,0.00,,,0.00,Wunderground v.1.15,2013-09-01 23:42:00,
2013-09-01 18:49:00,86.3,73.6,29.73,North,349,2.0,5.0,66,0.00,,,0.00,Wunderground v.1.15,2013-09-01 23:49:00,
2013-09-01 18:54:00,86.3,74.0,29.73,North,350,2.0,2.0,67,0.00,,,0.00,Wunderground v.1.15,2013-09-01 23:54:00,
2013-09-01 19:00:00,86.1,73.9,29.73,NNW,347,2.0,2.0,67,0.00,,,0.00,Wunderground v.1.15,2013-09-02 00:00:00,
2013-09-01 19:06:00,85.9,73.7,29.73,NNW,346,2.0,5.0,67,0.00,,,0.00,Wunderground v.1.15,2013-09-02 00:06:00,
2013-09-01 19:12:00,85.9,74.1,29.73,NNW,345,2.0,2.0,68,0.00,,,0.00,Wunderground v.1.15,2013-09-02 00:12:00,
2013-09-01 19:18:00,85.8,74.4,29.73,NNW,346,1.0,3.0,69,0.00,,,0.00,Wunderground v.1.15,2013-09-02 00:18:00,
2013-09-01 19:24:00,85.8,74.4,29.73,NNW,346,1.0,1.0,69,0.00,,,0.00,Wunderground v.1.15,2013-09-02 00:24:00,
2013-09-01 19:30:00,85.6,74.3,29.73,NNW,346,1.0,1.0,69,0.00,,,0.00,Wunderground v.1.15,2013-09-02 00:30:00,
2013-09-01 19:36:00,85.6,74.3,29.74,NNW,346,1.0,1.0,69,0.00,,,0.00,Wunderground v.1.15,2013-09-02 00:36:00,
2013-09-01 19:42:00,85.6,73.8,29.73,NNW,346,0.0,3.0,68,0.00,,,0.00,Wunderground v.1.15,2013-09-02 00:42:00,
2013-09-01 19:48:00,85.4,73.6,29.74,NNW,345,1.0,3.0,68,0.00,,,0.00,Wunderground v.1.15,2013-09-02 00:48:00,
2013-09-01 19:54:00,85.3,74.0,29.74,NNW,345,0.0,1.0,69,0.00,,,0.00,Wunderground v.1.15,2013-09-02 00:54:00,
2013-09-01 20:00:00,85.2,73.9,29.74,NNW,346,1.0,1.0,69,0.00,,,0.00,Wunderground v.1.15,2013-09-02 01:00:00,
2013-09-01 20:06:00,85.2,73.9,29.74,NNW,346,1.0,1.0,69,0.00,,,0.00,Wunderground v.1.15,2013-09-02 01:06:00,
2013-09-01 20:12:00,85.1,73.8,29.75,NNW,348,1.0,3.0,69,0.00,,,0.00,Wunderground v.1.15,2013-09-02 01:12:00,
2013-09-01 20:18:00,85.0,73.7,29.75,NNE,19,3.0,9.0,69,0.00,,,0.00,Wunderground v.1.15,2013-09-02 01:18:00,
2013-09-01 20:24:00,84.9,74.0,29.76,North,10,4.0,6.0,70,0.00,,,0.00,Wunderground v.1.15,2013-09-02 01:24:00,
2013-09-01 20:30:00,84.7,73.8,29.76,NNE,24,3.0,5.0,70,0.00,,,0.00,Wunderground v.1.15,2013-09-02 01:30:00,
2013-09-01 20:36:00,84.6,74.2,29.76,North,355,3.0,7.0,71,0.00,,,0.00,Wunderground v.1.15,2013-09-02 01:36:00,
2013-09-01 20:42:00,84.5,74.1,29.76,North,5,3.0,6.0,71,0.00,,,0.00,Wunderground v.1.15,2013-09-02 01:42:00,
2013-09-01 20:48:00,84.2,74.2,29.77,NNE,22,3.0,6.0,72,0.00,,,0.00,Wunderground v.1.15,2013-09-02 01:48:00,
2013-09-01 20:54:00,84.1,74.5,29.77,NNE,24,2.0,3.0,73,0.00,,,0.00,Wunderground v.1.15,2013-09-02 01:54:00,
2013-09-01 21:00:00,84.0,74.8,29.77,NE,51,2.0,8.0,74,0.00,,,0.00,Wunderground v.1.15,2013-09-02 02:00:00,
2013-09-01 21:06:00,83.7,74.5,29.78,NNE,27,3.0,8.0,74,0.00,,,0.00,Wunderground v.1.15,2013-09-02 02:06:00,
2013-09-01 21:12:00,83.4,74.6,29.78,NNE,26,3.0,4.0,75,0.00,,,0.00,Wunderground v.1.15,2013-09-02 02:12:00,
2013-09-01 21:18:00,83.4,74.6,29.79,NNE,13,2.0,5.0,75,0.00,,,0.00,Wunderground v.1.15,2013-09-02 02:18:00,
2013-09-01 21:26:00,83.2,74.4,29.78,NNE,15,3.0,6.0,75,0.00,,,0.00,Wunderground v.1.15,2013-09-02 02:26:00,
2013-09-01 21:32:00,83.0,74.3,29.79,NNE,19,3.0,3.0,75,0.00,,,0.00,Wunderground v.1.15,2013-09-02 02:32:00,
2013-09-01 21:39:00,83.0,74.3,29.79,NNE,30,3.0,3.0,75,0.00,,,0.00,Wunderground v.1.15,2013-09-02 02:39:00,
2013-09-01 21:44:00,83.0,74.3,29.79,ENE,76,2.0,2.0,75,0.00,,,0.00,Wunderground v.1.15,2013-09-02 02:44:00,
2013-09-01 21:50:00,83.0,74.3,29.80,East,79,1.0,1.0,75,0.00,,,0.00,Wunderground v.1.15,2013-09-02 02:50:00,
2013-09-01 21:56:00,82.9,74.2,29.80,ENE,57,1.0,3.0,75,0.00,,,0.00,Wunderground v.1.15,2013-09-02 02:56:00,
2013-09-01 22:02:00,82.9,74.2,29.80,NE,35,2.0,5.0,75,0.00,,,0.00,Wunderground v.1.15,2013-09-02 03:02:00,
2013-09-01 22:08:00,82.8,74.1,29.81,East,87,2.0,5.0,75,0.00,,,0.00,Wunderground v.1.15,2013-09-02 03:08:00,
2013-09-01 22:14:00,82.8,74.1,29.80,East,82,1.0,1.0,75,0.00,,,0.00,Wunderground v.1.15,2013-09-02 03:14:00,
2013-09-01 22:20:00,82.7,74.0,29.80,East,88,2.0,3.0,75,0.00,,,0.00,Wunderground v.1.15,2013-09-02 03:20:00,
2013-09-01 22:26:00,82.6,73.9,29.81,ESE,107,2.0,4.0,75,0.00,,,0.00,Wunderground v.1.15,2013-09-02 03:26:00,
2013-09-01 22:32:00,82.5,73.8,29.81,ESE,123,2.0,2.0,75,0.00,,,0.00,Wunderground v.1.15,2013-09-02 03:32:00,
2013-09-01 22:38:00,82.4,73.7,29.81,East,87,1.0,2.0,75,0.00,,,0.00,Wunderground v.1.15,2013-09-02 03:38:00,
2013-09-01 22:44:00,82.4,73.7,29.81,ENE,77,1.0,2.0,75,0.00,,,0.00,Wunderground v.1.15,2013-09-02 03:44:00,
2013-09-01 22:50:00,82.4,73.3,29.81,ENE,78,1.0,1.0,74,0.00,,,0.00,Wunderground v.1.15,2013-09-02 03:50:00,
2013-09-01 22:56:00,82.2,73.1,29.80,ENE,75,1.0,1.0,74,0.00,,,0.00,Wunderground v.1.15,2013-09-02 03:56:00,
2013-09-01 23:02:00,82.1,73.0,29.80,East,96,1.0,2.0,74,0.00,,,0.00,Wunderground v.1.15,2013-09-02 04:02:00,
2013-09-01 23:04:00,82.1,73.0,29.80,East,88,1.0,2.0,74,0.00,,,0.00,Wunderground v.1.15,2013-09-02 04:04:00,
2013-09-01 23:10:00,82.1,73.0,29.80,East,87,1.0,2.0,74,0.00,,,0.00,Wunderground v.1.15,2013-09-02 04:10:00,
2013-09-01 23:16:00,81.9,72.8,29.80,East,85,1.0,2.0,74,0.00,,,0.00,Wunderground v.1.15,2013-09-02 04:16:00,
2013-09-01 23:18:00,81.9,72.8,29.80,East,84,1.0,2.0,74,0.00,,,0.00,Wunderground v.1.15,2013-09-02 04:18:00,
2013-09-01 23:24:00,81.8,72.3,29.80,East,84,1.0,2.0,73,0.00,,,0.00,Wunderground v.1.15,2013-09-02 04:24:00,
2013-09-01 23:28:00,81.7,72.2,29.80,East,84,1.0,2.0,73,0.00,,,0.00,Wunderground v.1.15,2013-09-02 04:28:00,
2013-09-01 23:34:00,81.7,72.2,29.80,East,84,0.0,2.0,73,0.00,,,0.00,Wunderground v.1.15,2013-09-02 04:34:00,
2013-09-01 23:40:00,81.6,72.5,29.80,East,84,0.0,0.0,74,0.00,,,0.00,Wunderground v.1.15,2013-09-02 04:40:00,
2013-09-01 23:44:00,81.5,72.4,29.81,East,84,0.0,0.0,74,0.00,,,0.00,Wunderground v.1.15,2013-09-02 04:44:00,
2013-09-01 23:50:00,81.3,72.2,29.81,East,84,0.0,0.0,74,0.00,,,0.00,Wunderground v.1.15,2013-09-02 04:50:00,
2013-09-01 23:56:00,81.2,72.1,29.81,East,84,0.0,0.0,74,0.00,,,0.00,Wunderground v.1.15,2013-09-02 04:56:00,